星链-30881 (STARLINK-30881 )

导读

STARLINK-30881是美国太空探索技术公司SpaceX星链互联网卫星星座的一员,于美国东部时间2023年11月8日发射入轨,承担低轨卫星互联网组网运营任务。星链项目旨在为全球提供高速低延迟宽带互联网服务,该卫星发射后将参与星座部署,为覆盖区域提供天基互联网接入服务。

Basic Information
目录编号:
58251
目录名称:
STARLINK-30881
国际标识:
2023-171X
轨道中心:
EARTH
卫星名称:
星链-30881
卫星全名:
星链-30881 (STARLINK-30881 )
卫星状态:
在轨 (已飞行1032 天)
发射日期:
2023-11-08 UTC
国别 :
美国 (US)
星等 :
--
Orbit Information
数据来源 国际轨道数据 AOE轨道数据
星历时间 2026-09-05T15:20:35+0800
7小时前
查看轨道信息
2026-08-30T02:00:00+0800
6天前
查看轨道信息
半长轴 6861.17km 6861.216km
偏心率 0.000118 0.0001404
轨道倾角 43.001° 43.004°
近地点辐角 261.862° 270.734°
升交点赤经 350.836° 27.860°
平近点角 98.210° 353.929°
近地点 482.223km 482.115km
远地点 483.843km 484.043km
周期 94.266分钟 94.267分钟
每日圈数 15.275855 15.275703
Detailed Information
固有亮度:
5
最大亮度:
0.3
卫星平台:
Starlink v2.0 mini
覆盖范围:
全球
运营商:
太空探索技术公司
运营商所在国:
美国
制造商(研发单位):
太空探索技术公司
制造商所在国:
美国
使用方式:
暂无
Satellite Introduction
星链(Starlink)计划是由太空探索技术公司(SpaceX)提出的一个巨型低轨卫星互联网星座项目,计划在2019年至2024年间在太空搭建由约1.2万颗卫星组成的“星链”网络,其中1584颗将部署在地球上空550千米处的近地轨道,并从2020年开始工作。该卫星仍在工作。
2D Orbit Map
3D Orbit Map
Orbit Altitude Analysis Chart
Orbit Inclination Analysis Chart
Orbit Comprehensive Analysis Chart
View Comprehensive Chart
Conjunction Data List
Event ID Objects TCA Miss Dist (km) Collision Risk Probability Collision Risk Index (CRI) Action
CDM_260907-143505-825106-791421
2026-09-07T
14:35:39+0000
0.556 km
远距离
6.625186E-5 中风险 0.71
CDM_260907-050405-825106-793221
2026-09-07T
05:04:39+0000
0.824 km
远距离
3.267631E-5 中风险 0.65
CDM_260907-030604-378405-825124
SNUGLITE (43784)
2026-09-07T
03:06:02+0000
0.932 km
远距离
2.240248E-5 中风险 0.62
CDM_260907-033005-825106-793221
2026-09-07T
03:30:30+0000
1.240 km
极远距离
8.070664E-6 低风险 0.53
CDM_260907-063805-825106-793221
2026-09-07T
06:38:49+0000
2.153 km
极远距离
1.590647E-6 低风险 0.39
CDM_260907-015605-825106-793221
2026-09-07T
01:56:21+0000
2.630 km
极远距离
1.0954E-6 低风险 0.36
CDM_260907-160905-825106-791421
2026-09-07T
16:09:48+0000
2.707 km
极远距离
6.954155E-7 极低风险 0.32
CDM_260905-221803-913305-825124
AIST 2 (39133)
2026-09-05T
22:18:42+0000
2.744 km
极远距离
6.209269E-7 极低风险 0.31